Kuchera_Ratio
0.9 8.8 8.5 8.4 7.0 9.3 12.0 13.4 13.4 7.3 0.6 2.7 6.3 5.6 1.2 0.0 0.0 0.0 0.0 0.0 0.0 0.0 0.0 0.0 0.0 0.0 0.0 0.0 0.0 0.0 0.0 0.0 0.0 0.0 0.0 0.0 0.0 0.0 0.0 0.0 0.0 0.0 0.0 0.0
8.9 9.0 5.6 2.9 4.7 8.0 9.6 11.9 10.5 5.8 0.8 0.0 3.3 4.0 0.0 0.0 0.0 0.0 0.0 0.0 0.0 0.0 0.0 0.0 0.0 0.0 0.0 0.0 0.0 0.0 0.0 0.0 0.0 0.0 0.0 0.0 0.0 0.0 0.0 0.0 0.0 0.0 0.0 0.0
11.4 5.4 0.0 3.1 6.9 10.5 8.2 10.1 9.8 8.2 2.3 0.1 4.8 8.4 4.2 0.1 0.0 0.0 0.0 0.0 0.0 0.0 0.0 0.0 0.0 0.0 0.0 0.0 0.0 0.0 0.0 0.0 0.0 0.0 0.0 0.0 0.0 0.0 0.0 0.0 0.0 0.0 0.0 0.0
7.5 0.0 3.5 5.9 6.4 3.5 10.5 0.0 1.1 3.9 6.3 12.4 1.7 14.4 6.0 2.4 1.4 0.0 0.0 0.0 0.0 0.0 0.0 0.0 0.0 0.0 0.0 0.0 0.0 0.0 0.0 0.0 0.0 0.0 0.0 0.0 0.0 0.0 0.0 0.0 0.0 0.0 0.0 0.0
11.0 5.4 5.6 6.0 3.5 0.0 3.8 0.0 0.0 1.7 6.0 6.6 8.9 12.7 8.7 3.2 4.7 0.0 0.0 0.0 0.0 0.0 0.0 0.0 0.0 0.0 0.0 0.0 0.0 0.0 0.0 0.0 0.0 0.0 0.0 0.0 0.0 0.0 0.0 0.0 0.0 0.0 0.0 0.0
4.5 0.0 0.8 0.0 0.0 0.0 0.0 0.0 1.0 1.9 5.3 13.9 12.2 11.4 12.8 6.6 3.1 0.0 0.0 0.0 0.0 0.0 0.0 0.0 0.0 0.0 0.0 0.0 0.0 0.0 0.0 0.0 0.0 0.0 0.0 0.0 0.0 0.0 0.0 0.0 0.0 0.0 0.0 0.0
3.3 3.7 0.0 0.0 2.3 0.0 0.0 5.4 13.6 16.8 16.4 15.9 6.5 12.1 10.6 1.3 0.0 0.0 0.0 0.0 0.0 0.0 0.0 0.0 0.0 0.0 0.0 0.0 0.0 0.0 0.0 0.0 0.0 0.0 0.0 0.0 0.0 0.0 0.0 0.0 0.0 0.0 0.0 0.0
12.9 12.2 0.9 0.0 0.0 1.2 2.1 4.4 12.9 17.0 15.3 13.7 5.5 11.8 9.3 0.0 0.0 0.0 0.0 0.0 0.0 0.0 0.0 0.0 0.0 0.0 0.0 0.0 0.0 0.0 0.0 0.0 0.0 0.0 0.0 0.0 0.0 0.0 0.0 0.0 0.0 0.0 0.0 0.0
9.0 8.0 0.0 0.0 0.0 0.0 1.7 6.3 0.0 8.3 6.7 12.5 12.5 6.1 2.1 0.0 0.5 0.0 0.0 0.0 0.0 0.0 0.0 0.0 0.0 0.0 0.0 0.0 0.0 0.0 0.0 0.0 0.0 0.0 0.0 0.0 0.0 0.0 0.0 0.0 0.0 0.0 0.0 0.0
1.3 9.4 0.0 0.0 0.0 0.0 0.0 0.0 6.9 7.3 14.2 14.7 12.2 10.9 8.6 6.0 5.0 4.1 4.2 3.0 0.0 0.0 0.0 0.0 0.0 0.0 0.0 0.0 0.0 0.0 0.0 0.0 0.0 0.0 0.0 0.0 0.0 0.0 0.0 0.0 0.0 0.0 0.0 0.0
0.0 3.0 5.4 0.0 2.8 1.7 3.3 5.5 3.9 4.6 7.3 13.0 14.6 11.7 0.5 2.8 3.4 3.7 3.2 0.4 0.0 0.0 0.0 0.0 0.0 0.0 0.0 0.0 0.0 0.0 0.0 0.0 0.0 0.0 0.0 0.0 0.0 0.0 0.0 0.0 0.0 0.0 0.0 0.0
0.3 5.7 10.2 1.6 0.0 0.0 0.0 4.5 6.5 13.2 11.8 12.5 12.7 12.0 0.0 0.0 0.4 0.8 1.2 0.0 0.0 0.0 0.0 0.0 0.0 0.0 0.0 0.0 0.0 0.0 0.0 0.0 0.0 0.0 0.0 0.0 0.0 0.0 0.0 0.0 0.0 0.0 0.0 0.0
0.4 7.7 11.0 8.3 3.7 0.0 3.5 0.5 1.9 6.9 8.5 12.2 13.8 12.4 0.0 0.0 0.0 0.0 0.0 0.0 0.0 0.0 0.0 0.0 0.0 0.0 0.0 0.0 0.0 0.0 0.0 0.0 0.0 0.0 0.0 0.0 0.0 0.0 0.0 0.0 0.0 0.0 0.0 0.0
0.0 6.3 8.1 12.1 6.7 5.9 5.8 4.7 4.4 7.3 10.5 10.7 11.3 8.5 2.1 0.1 0.0 0.0 0.0 0.1 0.3 0.0 0.0 0.0 0.0 0.0 0.0 0.0 0.0 0.0 0.0 0.0 0.0 0.0 0.0 0.0 0.0 0.0 0.0 0.0 0.0 0.0 0.0 0.0
0.0 5.3 5.8 4.1 4.5 5.5 5.4 4.9 5.0 6.6 7.1 8.4 6.0 6.1 1.9 0.3 1.4 0.6 0.0 0.0 0.0 0.0 0.0 0.0 0.0 0.0 0.0 0.0 0.0 0.0 0.0 0.0 0.0 0.0 0.0 0.2 0.0 0.0 0.0 0.0 0.0 0.0 0.0 0.0
0.0 4.2 5.8 4.3 3.4 4.6 5.4 2.5 3.0 4.4 5.4 4.7 4.8 3.9 0.0 0.0 0.0 0.0 0.0 0.0 0.0 0.0 0.0 0.0 0.0 0.0 0.0 0.0 0.0 0.0 0.0 0.0 0.0 0.0 0.2 0.4 0.0 0.0 0.1 0.3 0.6 0.2 0.5 0.6
1.2 4.4 5.5 7.9 3.8 4.1 6.7 1.2 1.8 2.5 1.4 0.5 4.9 0.0 0.0 0.0 0.0 0.0 0.0 0.0 0.0 0.0 0.0 0.0 0.0 0.0 0.0 0.0 0.0 0.0 0.0 0.0 0.0 0.1 0.3 0.7 1.0 1.2 1.4 1.2 1.2 1.2 1.4 1.4
1.9 4.8 6.4 8.7 7.7 12.5 1.4 0.0 0.0 1.5 0.0 0.0 0.0 0.0 0.0 0.0 0.0 0.0 0.0 0.0 0.0 0.0 0.0 0.0 0.0 0.0 0.0 0.0 0.0 0.0 0.0 0.0 0.0 0.5 0.7 1.0 1.7 2.0 1.9 2.1 3.0 2.9 3.1 3.9
0.0 5.0 6.6 9.8 9.5 5.1 1.9 0.9 1.3 2.3 0.0 0.0 0.0 0.0 0.0 0.0 0.0 0.0 0.0 0.0 0.0 0.0 0.0 0.0 0.0 0.0 0.0 0.0 0.1 0.0 0.0 1.2 2.0 3.0 3.0 2.9 3.1 3.8 4.2 5.0 5.4 4.5 5.4 5.7
1.0 1.6 5.0 10.5 10.6 12.5 1.1 0.0 0.0 0.0 4.9 0.0 0.0 0.0 0.0 0.0 4.7 0.0 0.0 0.0 0.0 0.0 0.0 0.0 0.0 0.0 0.7 1.9 2.2 2.7 3.4 3.8 4.0 4.0 4.1 3.3 3.3 4.3 5.3 5.0 5.1 5.2 6.6 7.2
5.1 6.7 10.3 10.9 11.1 5.3 0.0 0.0 0.0 7.9 1.3 0.0 0.0 0.0 0.0 0.0 0.0 0.0 0.0 0.0 0.0 0.0 0.0 0.0 0.7 1.2 2.1 2.5 2.7 2.9 3.4 4.3 5.1 4.8 4.6 4.2 4.0 5.1 4.9 5.7 5.9 6.7 7.5 8.2
5.0 9.0 8.9 11.1 12.2 11.1 0.0 0.0 2.4 0.0 0.0 0.0 0.0 0.0 0.0 0.0 0.0 0.0 0.0 0.0 0.0 0.0 0.0 0.1 0.5 1.5 2.6 3.3 3.9 5.4 5.7 6.0 6.1 6.4 6.8 6.8 6.5 6.9 7.6 8.4 8.4 8.6 9.9 10.6
7.4 2.7 2.4 3.8 0.7 0.0 0.0 0.0 0.0 0.0 0.0 0.0 0.0 0.0 0.0 0.0 0.0 0.0 0.0 0.0 0.0 0.0 0.2 1.4 2.3 3.1 3.8 5.2 6.2 7.0 6.7 7.1 7.6 8.3 8.6 8.7 8.4 8.5 8.4 9.9 10.5 11.4 11.5 12.3
1.6 0.5 3.4 1.4 0.0 0.0 0.0 0.0 0.0 0.0 0.0 0.0 0.0 0.0 0.0 0.0 0.0 0.0 0.0 0.2 0.5 1.1 1.8 2.7 3.7 4.7 5.7 7.0 7.9 8.7 8.5 8.5 9.6 10.3 10.2 9.6 10.0 9.6 9.0 10.1 10.7 12.1 12.4 12.8
0.0 0.9 2.1 4.3 0.0 0.0 0.0 0.0 0.0 0.0 0.0 0.0 0.0 0.0 0.0 0.0 0.0 0.0 0.6 1.9 2.2 3.0 4.0 4.7 5.6 6.7 7.3 8.2 8.7 8.7 9.4 10.2 11.7 11.8 12.1 12.0 12.1 11.9 12.5 12.3 12.3 11.6 11.9 12.1
1.6 0.8 3.8 1.5 0.0 0.0 0.0 0.0 0.0 0.0 0.0 0.0 0.0 0.0 0.0 0.0 0.0 0.7 1.9 2.2 3.1 4.2 5.5 6.6 7.5 8.1 8.3 9.2 10.1 9.5 9.6 10.9 12.4 13.3 11.5 12.1 11.2 12.7 12.4 12.8 12.5 6.0 4.0 2.8